User: anonymous   Login
Location: Hepcat Sky Observatory
(29.9800°N, 95.6500°W)
Time: 09:13:46
(UTC-05:00)
Language:

Cosmos 2151 Rocket - Orbit

View from above orbital plane
View from above orbital plane
View from above satellite
View from above satellite

Ground track
Ground track

The orbit data is extracted from the following two-line orbital elements,

1 21423U 91042B   16242.12828468  .00000114  00000-0  12045-4 0  9994
2 21423  82.4917 234.3248 0018966 124.2925 236.0086 14.79648416359390
Epoch (UTC): 29 August 2016 03:04:43
Eccentricity: 0.0018966
inclination: 82.4917°
perigee height: 617 km
apogee height: 644 km
right ascension of ascending node: 234.3248°
argument of perigee: 124.2925°
revolutions per day: 14.79648416
mean anomaly at epoch: 236.0086°
orbit number at epoch: 35939

The dashed part of the orbit path shows where the satellite is in the earth's shadow,  

DLR